This demonstration page uses our WeatherBlox Daily Observations layout. Learn more.

Left ArrowRight Arrow

38.83388, -104.82136

Hourly Observations for March 6, 2021

Temp ( °F °C ) Dew Point ( °F °C ) Humidity (%) Winds ( mph kmh ) Pressure ( in mb ) Visibility ( mi km ) Precip ( " mm )
12:58 am 00:58 Clear 40 4.5 14 -10.1 34 34 S 8 13 30.14 1021 10 16 0.00 0.00
1:58 am 01:58 Clear 36 2.3 14 -10.1 40 40 SSE 5 7 29.89 1012 10 16 0.00 0.00
2:58 am 02:58 Clear 35 1.8 14 -10.2 41 41 S 3 6 29.87 1011 10 16 0.00 0.00
3:58 am 03:58 Clear 39 3.8 11 -11.6 32 32 SSE 10 17 29.85 1011 10 16 0.00 0.00
4:58 am 04:58 Clear 39 3.8 11 -11.9 31 31 S 7 11 29.85 1011 10 16 0.00 0.00
5:58 am 05:58 Clear 36 2.3 12 -11.2 37 37 Calm 29.85 1011 10 16 0.00 0.00
6:58 am 06:58 Sunny 37 2.7 12 -11.3 35 35 Calm 29.83 1010 10 16 0.00 0.00
7:58 am 07:58 Sunny 39 4 15 -9.7 36 36 Calm 29.82 1010 10 16 0.00 0.00
8:58 am 08:58 Sunny 41 5.1 18 -7.8 39 39 Calm 29.80 1009 10 16 0.00 0.00
9:58 am 09:58 Sunny 46 7.9 21 -5.9 37 37 Calm 29.79 1009 10 16 0.00 0.00
11:58 am 11:58 Sunny 50 10.2 21 -6.2 31 31 NNE 3 6 29.70 1006 10 16 0.00 0.00
12:58 pm 12:58 Sunny 58 14.7 8 -13.1 13 13 SE 22 35 29.60 1002 10 16 0.00 0.00
1:58 pm 13:58 Sunny 58 14.2 10 -12.4 15 15 SSE 18 30 29.60 1002 10 16 0.00 0.00
2:58 pm 14:58 Sunny 56 13.6 10 -12.5 15 15 SE 18 30 29.58 1002 10 16 0.00 0.00
3:58 pm 15:58 Mostly Sunny 55 13 10 -12.2 16 16 SE 17 28 29.58 1002 10 16 0.00 0.00
4:58 pm 16:58 Mostly Cloudy 55 12.7 9 -12.7 16 16 SSE 7 11 29.57 1001 10 16 0.00 0.00
5:58 pm 17:58 Mostly Cloudy 54 12.3 5 -14.8 14 14 SW 13 20 29.59 1002 10 16 0.00 0.00
5:59 pm 17:59 Mostly Cloudy 54 12 5 -15 14 14 W 14 22 29.59 1002 10 16 0.00 0.00
6:01 pm 18:01 Mostly Cloudy 54 12 5 -15 14 14 SW 12 19 29.59 1002 10 16 0.00 0.00
6:58 pm 18:58 Mostly Cloudy 53 11.5 8 -13.2 16 16 SW 7 11 29.60 1002 10 16 0.00 0.00
7:58 pm 19:58 Clear 49 9.5 9 -12.7 20 20 W 5 7 29.59 1002 10 16 0.00 0.00
8:58 pm 20:58 Clear 51 10.4 6 -14.3 16 16 Calm 29.56 1001 10 16 0.00 0.00
9:58 pm 21:58 Clear 49 9.7 10 -12.2 20 20 WNW 3 6 29.56 1001 10 16 0.00 0.00
10:58 pm 22:58 Clear 46 7.7 10 -12.1 23 23 WNW 6 9 29.58 1002 10 16 0.00 0.00
11:58 pm 23:58 Clear 52 10.9 0 -18 11 11 W 16 26 29.52 1000 10 16 0.00 0.00

Powered by AerisWeather